User: anonymous   Login
Location: Weston
(26.1283°N, 80.4075°W)
Time: 02:06:52
(UTC-05:00)
Language:

H-2A R/B - Orbit

View from above orbital plane
View from above orbital plane
View from above satellite
View from above satellite

Ground track
Ground track

The orbit data is extracted from the following two-line orbital elements,

1 26899U 01038B   15030.85190926  .00001966  00000-0  60986-3 0  1272
2 26899 028.2332 056.0567 7147860 336.1178 035.7981 02.44341594115081
Epoch (UTC): 30 January 2015 20:26:44
Eccentricity: 0.7147860
inclination: 28.2332°
perigee height: 263 km
apogee height: 33550 km
right ascension of ascending node: 56.0567°
argument of perigee: 336.1178°
revolutions per day: 2.44341594
mean anomaly at epoch: 35.7981°
orbit number at epoch: 11508

The dashed part of the orbit path shows where the satellite is in the earth's shadow,  

DLR